Time,TemperatureF,DewpointF,PressureIn,WindDirection,WindDirectionDegrees,WindSpeedMPH,WindSpeedGustMPH,Humidity,HourlyPrecipIn,Conditions,Clouds,dailyrainin,SoftwareType,DateUTC
2013-08-23 00:01:00,75.4,65.3,30.00,SW,231,0.0,0.0,71,0.00,,---,0.00,VWS V14.01,2013-08-23 04:01:00,
2013-08-23 00:02:00,75.4,65.3,30.00,SW,226,0.0,0.0,71,0.00,,---,0.00,VWS V14.01,2013-08-23 04:02:00,
2013-08-23 00:03:00,75.4,65.3,30.00,South,178,0.0,0.0,71,0.00,,---,0.00,VWS V14.01,2013-08-23 04:03:00,
2013-08-23 00:06:00,75.4,65.3,30.00,SW,220,0.0,0.0,71,0.00,,---,0.00,VWS V14.01,2013-08-23 04:06:00,
2013-08-23 00:12:00,75.4,65.3,29.97,SW,222,0.0,0.0,71,0.00,,---,0.00,VWS V14.01,2013-08-23 04:12:00,
2013-08-23 00:15:00,75.4,65.3,29.97,WSW,237,0.0,0.0,71,0.00,,---,0.00,VWS V14.01,2013-08-23 04:15:00,
2013-08-23 00:20:00,75.4,65.3,29.97,SW,236,0.0,0.0,71,0.00,,---,0.00,VWS V14.01,2013-08-23 04:20:00,
2013-08-23 00:26:00,75.4,65.7,29.97,South,186,0.0,0.0,72,0.00,,---,0.00,VWS V14.01,2013-08-23 04:26:00,
2013-08-23 00:32:00,75.4,65.7,29.97,South,185,0.0,0.0,72,0.00,,---,0.00,VWS V14.01,2013-08-23 04:32:00,
2013-08-23 00:38:00,75.4,65.7,29.97,SW,226,0.0,0.0,72,0.00,,---,0.00,VWS V14.01,2013-08-23 04:38:00,
2013-08-23 00:44:00,75.6,65.9,29.97,SW,220,0.0,0.0,72,0.00,,---,0.00,VWS V14.01,2013-08-23 04:44:00,
2013-08-23 00:50:00,75.6,65.9,29.97,SSW,206,0.0,0.0,72,0.00,,---,0.00,VWS V14.01,2013-08-23 04:50:00,
2013-08-23 00:55:00,75.4,65.7,29.97,SSW,201,0.0,0.0,72,0.00,,---,0.00,VWS V14.01,2013-08-23 04:55:00,
2013-08-23 01:01:00,75.4,65.7,29.97,South,184,0.0,0.0,72,0.00,,---,0.00,VWS V14.01,2013-08-23 05:01:00,
2013-08-23 01:06:00,75.2,65.6,29.97,SW,233,0.0,0.0,72,0.00,,---,0.00,VWS V14.01,2013-08-23 05:06:00,
2013-08-23 01:12:00,75.0,65.4,29.97,South,177,0.0,0.0,72,0.00,,---,0.00,VWS V14.01,2013-08-23 05:12:00,
2013-08-23 01:18:00,74.8,65.2,29.97,SSW,207,0.0,0.0,72,0.00,,---,0.00,VWS V14.01,2013-08-23 05:18:00,
2013-08-23 01:23:00,74.7,65.0,29.97,WSW,240,0.0,0.0,72,0.00,,---,0.00,VWS V14.01,2013-08-23 05:23:00,
2013-08-23 01:29:00,74.5,64.9,29.97,WSW,251,0.0,0.0,72,0.00,,---,0.00,VWS V14.01,2013-08-23 05:29:00,
2013-08-23 01:34:00,74.5,64.9,29.97,South,183,0.0,0.0,72,0.00,,---,0.00,VWS V14.01,2013-08-23 05:34:00,
2013-08-23 01:39:00,74.3,64.7,29.97,South,178,0.0,0.0,72,0.00,,---,0.00,VWS V14.01,2013-08-23 05:39:00,
2013-08-23 01:44:00,74.3,64.7,29.97,SW,225,0.0,0.0,72,0.00,,---,0.00,VWS V14.01,2013-08-23 05:44:00,
2013-08-23 01:50:00,74.3,64.7,29.97,SSW,213,0.0,0.0,72,0.00,,---,0.00,VWS V14.01,2013-08-23 05:50:00,
2013-08-23 01:56:00,74.3,64.7,29.97,SSW,213,0.0,0.0,72,0.00,,---,0.00,VWS V14.01,2013-08-23 05:56:00,
2013-08-23 02:01:00,74.1,64.5,29.97,WSW,246,0.0,0.0,72,0.00,,---,0.00,VWS V14.01,2013-08-23 06:01:00,
2013-08-23 02:07:00,74.1,64.5,29.97,SW,236,0.0,0.0,72,0.00,,---,0.00,VWS V14.01,2013-08-23 06:07:00,
2013-08-23 02:12:00,73.9,64.3,29.97,NW,307,0.0,0.0,72,0.00,,---,0.00,VWS V14.01,2013-08-23 06:12:00,
2013-08-23 02:17:00,73.9,64.3,29.97,SSW,200,0.0,0.0,72,0.00,,---,0.00,VWS V14.01,2013-08-23 06:17:00,
2013-08-23 02:22:00,73.9,64.3,29.97,SSW,200,0.0,0.0,72,0.00,,---,0.00,VWS V14.01,2013-08-23 06:22:00,
2013-08-23 02:27:00,73.9,64.3,29.97,West,277,0.0,0.0,72,0.00,,---,0.00,VWS V14.01,2013-08-23 06:27:00,
2013-08-23 02:32:00,73.8,64.2,29.97,SW,222,0.0,0.0,72,0.00,,---,0.00,VWS V14.01,2013-08-23 06:32:00,
2013-08-23 02:38:00,73.8,64.2,29.97,WSW,239,0.0,0.0,72,0.00,,---,0.00,VWS V14.01,2013-08-23 06:38:00,
2013-08-23 02:44:00,73.8,64.2,29.97,North,357,0.0,0.0,72,0.00,,---,0.00,VWS V14.01,2013-08-23 06:44:00,
2013-08-23 02:50:00,73.6,64.0,29.97,NW,314,0.0,0.0,72,0.00,,---,0.00,VWS V14.01,2013-08-23 06:50:00,
2013-08-23 02:55:00,73.6,64.0,29.97,SW,222,0.0,0.0,72,0.00,,---,0.00,VWS V14.01,2013-08-23 06:55:00,
2013-08-23 03:00:00,73.4,63.8,29.94,SW,221,0.0,0.0,72,0.00,,---,0.00,VWS V14.01,2013-08-23 07:00:00,
2013-08-23 03:06:00,73.4,63.8,29.94,West,275,0.0,0.0,72,0.00,,---,0.00,VWS V14.01,2013-08-23 07:06:00,
2013-08-23 03:11:00,73.4,64.2,29.94,SW,229,0.0,0.0,73,0.00,,---,0.00,VWS V14.01,2013-08-23 07:11:00,
2013-08-23 03:17:00,73.2,64.1,29.94,SW,222,0.0,0.0,73,0.00,,---,0.00,VWS V14.01,2013-08-23 07:17:00,
2013-08-23 03:22:00,73.2,64.1,29.94,South,179,0.0,0.0,73,0.00,,---,0.00,VWS V14.01,2013-08-23 07:22:00,
2013-08-23 03:28:00,73.0,63.9,29.94,SW,230,0.0,0.0,73,0.00,,---,0.00,VWS V14.01,2013-08-23 07:28:00,
2013-08-23 03:33:00,73.2,64.1,29.94,West,267,0.0,0.0,73,0.00,,---,0.00,VWS V14.01,2013-08-23 07:33:00,
2013-08-23 03:39:00,73.0,63.9,29.94,SSW,200,0.0,0.0,73,0.00,,---,0.00,VWS V14.01,2013-08-23 07:39:00,
2013-08-23 03:45:00,73.0,63.9,29.94,WSW,241,0.0,0.0,73,0.00,,---,0.00,VWS V14.01,2013-08-23 07:45:00,
2013-08-23 03:50:00,73.0,63.9,29.94,NW,314,0.0,0.0,73,0.00,,---,0.00,VWS V14.01,2013-08-23 07:50:00,
2013-08-23 03:56:00,72.9,63.7,29.94,WSW,245,0.0,0.0,73,0.00,,---,0.00,VWS V14.01,2013-08-23 07:56:00,
2013-08-23 04:02:00,72.9,63.7,29.94,West,278,0.0,0.0,73,0.00,,---,0.00,VWS V14.01,2013-08-23 08:02:00,
2013-08-23 04:07:00,72.9,63.7,29.94,West,280,0.0,0.0,73,0.00,,---,0.00,VWS V14.01,2013-08-23 08:07:00,
2013-08-23 04:13:00,72.9,63.7,29.94,WSW,253,0.0,0.0,73,0.00,,---,0.00,VWS V14.01,2013-08-23 08:13:00,
2013-08-23 04:18:00,72.9,63.7,29.94,West,273,0.0,0.0,73,0.00,,---,0.00,VWS V14.01,2013-08-23 08:18:00,
2013-08-23 04:23:00,72.9,63.7,29.94,WSW,253,0.0,0.0,73,0.00,,---,0.00,VWS V14.01,2013-08-23 08:23:00,
2013-08-23 04:28:00,72.7,63.9,29.94,SW,226,0.0,0.0,74,0.00,,---,0.00,VWS V14.01,2013-08-23 08:28:00,
2013-08-23 04:34:00,72.7,63.9,29.94,SW,224,0.0,0.0,74,0.00,,---,0.00,VWS V14.01,2013-08-23 08:34:00,
2013-08-23 04:39:00,72.7,63.9,29.94,WNW,289,0.0,0.0,74,0.00,,---,0.00,VWS V14.01,2013-08-23 08:39:00,
2013-08-23 04:45:00,72.7,63.9,29.94,WNW,289,0.0,0.0,74,0.00,,---,0.00,VWS V14.01,2013-08-23 08:45:00,
2013-08-23 04:51:00,72.7,63.9,29.94,WSW,253,0.0,0.0,74,0.00,,---,0.00,VWS V14.01,2013-08-23 08:51:00,
2013-08-23 04:56:00,72.7,63.9,29.94,WNW,285,0.0,0.0,74,0.00,,---,0.00,VWS V14.01,2013-08-23 08:56:00,
2013-08-23 05:01:00,72.5,63.8,29.94,WNW,294,0.0,0.0,74,0.00,,---,0.00,VWS V14.01,2013-08-23 09:01:00,
2013-08-23 05:06:00,72.5,63.8,29.94,SSW,201,0.0,0.0,74,0.00,,---,0.00,VWS V14.01,2013-08-23 09:06:00,
2013-08-23 05:12:00,72.5,63.8,29.94,WNW,297,0.0,0.0,74,0.00,,---,0.00,VWS V14.01,2013-08-23 09:12:00,
2013-08-23 05:17:00,72.5,63.8,29.94,West,272,0.0,0.0,74,0.00,,---,0.00,VWS V14.01,2013-08-23 09:17:00,
2013-08-23 05:23:00,72.5,63.8,29.94,WNW,284,0.0,0.0,74,0.00,,---,0.00,VWS V14.01,2013-08-23 09:23:00,
2013-08-23 05:28:00,72.5,63.8,29.94,WNW,291,0.0,0.0,74,0.00,,---,0.00,VWS V14.01,2013-08-23 09:28:00,
2013-08-23 05:34:00,72.7,63.9,29.94,West,280,0.0,0.0,74,0.00,,---,0.00,VWS V14.01,2013-08-23 09:34:00,
2013-08-23 05:39:00,72.7,63.9,29.94,WNW,294,0.0,0.0,74,0.00,,---,0.00,VWS V14.01,2013-08-23 09:39:00,
2013-08-23 05:45:00,72.7,63.9,29.97,WSW,255,0.0,0.0,74,0.00,,---,0.00,VWS V14.01,2013-08-23 09:45:00,
2013-08-23 05:51:00,72.7,63.9,29.97,WNW,300,0.0,0.0,74,0.00,,---,0.00,VWS V14.01,2013-08-23 09:51:00,
2013-08-23 05:56:00,72.9,64.1,29.97,WNW,295,0.0,0.0,74,0.00,,---,0.00,VWS V14.01,2013-08-23 09:56:00,
2013-08-23 06:02:00,73.0,64.7,29.97,SW,222,0.0,0.0,75,0.00,,---,0.00,VWS V14.01,2013-08-23 10:02:00,
2013-08-23 06:08:00,73.0,64.7,29.97,West,275,0.0,0.0,75,0.00,,---,0.00,VWS V14.01,2013-08-23 10:08:00,
2013-08-23 06:13:00,73.0,64.7,29.97,WNW,295,0.0,0.0,75,0.00,,---,0.00,VWS V14.01,2013-08-23 10:13:00,
2013-08-23 06:19:00,73.0,64.7,29.97,WNW,299,0.0,0.0,75,0.00,,---,0.00,VWS V14.01,2013-08-23 10:19:00,
2013-08-23 06:24:00,73.2,64.8,29.97,West,273,0.0,0.0,75,0.00,,---,0.00,VWS V14.01,2013-08-23 10:24:00,
2013-08-23 06:29:00,73.4,65.0,29.97,West,266,0.0,0.0,75,0.00,,---,0.00,VWS V14.01,2013-08-23 10:29:00,
2013-08-23 06:34:00,73.6,65.2,29.97,WNW,303,0.0,0.0,75,0.00,,---,0.00,VWS V14.01,2013-08-23 10:34:00,
2013-08-23 06:40:00,73.8,65.3,29.97,NW,319,0.0,0.0,75,0.00,,---,0.00,VWS V14.01,2013-08-23 10:40:00,
2013-08-23 06:45:00,73.8,65.3,29.97,WNW,287,0.0,0.0,75,0.00,,---,0.00,VWS V14.01,2013-08-23 10:45:00,
2013-08-23 06:51:00,73.9,65.5,29.97,NW,315,0.0,0.0,75,0.00,,---,0.00,VWS V14.01,2013-08-23 10:51:00,
2013-08-23 06:57:00,73.9,65.5,30.00,WNW,294,0.0,0.0,75,0.00,,---,0.00,VWS V14.01,2013-08-23 10:57:00,
2013-08-23 07:02:00,74.1,65.7,30.00,WNW,289,0.0,0.0,75,0.00,,---,0.00,VWS V14.01,2013-08-23 11:02:00,
2013-08-23 07:08:00,74.1,65.3,30.00,WNW,289,0.0,0.0,74,0.00,,---,0.00,VWS V14.01,2013-08-23 11:08:00,
2013-08-23 07:13:00,73.9,65.1,30.00,NW,309,0.0,0.0,74,0.00,,---,0.00,VWS V14.01,2013-08-23 11:13:00,
2013-08-23 07:19:00,74.1,65.3,30.00,WNW,296,0.0,0.0,74,0.00,,---,0.00,VWS V14.01,2013-08-23 11:19:00,
2013-08-23 07:24:00,73.9,65.1,30.00,NW,320,0.0,0.0,74,0.00,,---,0.00,VWS V14.01,2013-08-23 11:24:00,
2013-08-23 07:30:00,73.6,64.4,30.00,NW,311,0.0,0.0,73,0.00,,---,0.00,VWS V14.01,2013-08-23 11:30:00,
2013-08-23 07:36:00,73.8,63.8,30.00,NW,305,0.0,0.0,71,0.00,,---,0.00,VWS V14.01,2013-08-23 11:36:00,
2013-08-23 07:41:00,73.8,63.0,30.00,NW,310,0.0,0.0,69,0.00,,---,0.00,VWS V14.01,2013-08-23 11:41:00,
2013-08-23 07:47:00,74.1,62.9,30.00,NW,312,0.0,0.0,68,0.00,,---,0.00,VWS V14.01,2013-08-23 11:47:00,
2013-08-23 07:53:00,74.3,61.8,30.00,WNW,298,0.0,0.0,65,0.00,,---,0.00,VWS V14.01,2013-08-23 11:53:00,
2013-08-23 07:58:00,74.1,60.3,30.00,NW,304,0.0,0.0,62,0.00,,---,0.00,VWS V14.01,2013-08-23 11:58:00,
2013-08-23 08:04:00,74.5,57.8,30.00,NW,324,0.0,0.0,56,0.00,,---,0.00,VWS V14.01,2013-08-23 12:04:00,
2013-08-23 08:09:00,74.7,55.3,30.00,NNW,334,0.0,0.0,51,0.00,,---,0.00,VWS V14.01,2013-08-23 12:09:00,
2013-08-23 08:15:00,75.2,53.6,30.00,NW,308,0.0,0.0,47,0.00,,---,0.00,VWS V14.01,2013-08-23 12:15:00,
2013-08-23 08:21:00,75.0,52.9,30.00,NW,307,0.0,0.0,46,0.00,,---,0.00,VWS V14.01,2013-08-23 12:21:00,
2013-08-23 08:26:00,75.4,52.6,30.00,NNW,330,0.0,0.0,45,0.00,,---,0.00,VWS V14.01,2013-08-23 12:26:00,
2013-08-23 08:32:00,75.6,52.1,30.00,North,357,0.0,0.0,44,0.00,,---,0.00,VWS V14.01,2013-08-23 12:32:00,
2013-08-23 08:37:00,75.6,48.9,30.00,WNW,299,0.0,0.0,39,0.00,,---,0.00,VWS V14.01,2013-08-23 12:37:00,
2013-08-23 08:42:00,75.4,48.7,30.00,WNW,301,0.0,0.0,39,0.00,,---,0.00,VWS V14.01,2013-08-23 12:42:00,
2013-08-23 08:47:00,75.4,48.7,30.00,WNW,288,0.0,0.0,39,0.00,,---,0.00,VWS V14.01,2013-08-23 12:47:00,
2013-08-23 08:53:00,74.7,47.4,30.00,North,357,0.0,0.0,38,0.00,,---,0.00,VWS V14.01,2013-08-23 12:53:00,
2013-08-23 08:58:00,74.8,47.6,30.00,NNW,329,0.0,0.0,38,0.00,,---,0.00,VWS V14.01,2013-08-23 12:58:00,
2013-08-23 09:03:00,75.6,48.2,30.00,NW,316,0.0,0.0,38,0.00,,---,0.00,VWS V14.01,2013-08-23 13:03:00,
2013-08-23 09:08:00,75.7,47.7,30.00,NNW,344,0.0,0.0,37,0.00,,---,0.00,VWS V14.01,2013-08-23 13:08:00,
2013-08-23 09:14:00,75.7,47.7,30.00,NNE,31,0.0,0.0,37,0.00,,---,0.00,VWS V14.01,2013-08-23 13:14:00,
2013-08-23 09:19:00,75.4,46.6,30.00,NNW,346,0.0,0.0,36,0.00,,---,0.00,VWS V14.01,2013-08-23 13:19:00,
2013-08-23 09:24:00,75.2,47.9,30.00,NW,320,0.0,0.0,38,0.00,,---,0.00,VWS V14.01,2013-08-23 13:24:00,
2013-08-23 09:30:00,74.8,47.6,30.03,NW,313,0.0,0.0,38,0.00,,---,0.00,VWS V14.01,2013-08-23 13:30:00,
2013-08-23 09:36:00,74.5,48.6,30.03,NW,322,0.0,0.0,40,0.00,,---,0.00,VWS V14.01,2013-08-23 13:36:00,
2013-08-23 09:42:00,75.0,49.1,30.00,WNW,289,0.0,0.0,40,0.00,,---,0.00,VWS V14.01,2013-08-23 13:42:00,
2013-08-23 09:47:00,75.7,48.4,30.00,NE,40,0.0,0.0,38,0.00,,---,0.00,VWS V14.01,2013-08-23 13:47:00,
2013-08-23 09:53:00,75.2,47.2,30.00,NW,314,0.0,0.0,37,0.00,,---,0.00,VWS V14.01,2013-08-23 13:53:00,
2013-08-23 09:58:00,75.2,47.2,30.03,NNW,335,0.0,0.0,37,0.00,,---,0.00,VWS V14.01,2013-08-23 13:58:00,
2013-08-23 10:04:00,75.0,47.7,30.03,NW,313,0.0,0.0,38,0.00,,---,0.00,VWS V14.01,2013-08-23 14:04:00,
2013-08-23 10:10:00,74.5,47.2,30.03,North,353,0.0,0.0,38,0.00,,---,0.00,VWS V14.01,2013-08-23 14:10:00,
2013-08-23 10:15:00,74.3,47.8,30.03,NNE,15,0.0,0.0,39,0.00,,---,0.00,VWS V14.01,2013-08-23 14:15:00,
2013-08-23 10:21:00,74.5,48.6,30.03,WNW,297,0.0,0.0,40,0.00,,---,0.00,VWS V14.01,2013-08-23 14:21:00,
2013-08-23 10:27:00,74.3,47.8,30.03,NW,306,0.0,0.0,39,0.00,,---,0.00,VWS V14.01,2013-08-23 14:27:00,
2013-08-23 10:32:00,74.3,47.1,30.03,WNW,297,0.0,0.0,38,0.00,,---,0.00,VWS V14.01,2013-08-23 14:32:00,
2013-08-23 10:38:00,74.7,48.1,30.03,North,11,0.0,0.0,39,0.00,,---,0.00,VWS V14.01,2013-08-23 14:38:00,
2013-08-23 10:43:00,74.7,47.4,30.03,North,1,0.0,0.0,38,0.00,,---,0.00,VWS V14.01,2013-08-23 14:43:00,
2013-08-23 10:49:00,74.7,46.7,30.03,North,5,0.0,0.0,37,0.00,,---,0.00,VWS V14.01,2013-08-23 14:49:00,
2013-08-23 10:55:00,75.2,48.6,30.03,North,1,0.0,0.0,39,0.00,,---,0.00,VWS V14.01,2013-08-23 14:55:00,
2013-08-23 11:00:00,75.0,47.0,30.06,West,279,0.0,0.0,37,0.00,,---,0.00,VWS V14.01,2013-08-23 15:00:00,
2013-08-23 11:06:00,75.6,47.5,30.06,NNW,346,0.0,0.0,37,0.00,,---,0.00,VWS V14.01,2013-08-23 15:06:00,
2013-08-23 11:11:00,76.1,47.2,30.06,NNE,19,0.0,0.0,36,0.00,,---,0.00,VWS V14.01,2013-08-23 15:11:00,
2013-08-23 11:17:00,75.9,47.1,30.06,WNW,292,0.0,0.0,36,0.00,,---,0.00,VWS V14.01,2013-08-23 15:17:00,
2013-08-23 11:23:00,75.4,45.9,30.06,NW,315,0.0,0.0,35,0.00,,---,0.00,VWS V14.01,2013-08-23 15:23:00,
2013-08-23 11:28:00,75.9,47.1,30.06,NNW,345,0.0,0.0,36,0.00,,---,0.00,VWS V14.01,2013-08-23 15:28:00,
2013-08-23 11:33:00,75.9,47.1,30.06,NW,305,0.0,0.0,36,0.00,,---,0.00,VWS V14.01,2013-08-23 15:33:00,
2013-08-23 11:38:00,75.6,46.8,30.06,NW,324,0.0,0.0,36,0.00,,---,0.00,VWS V14.01,2013-08-23 15:38:00,
2013-08-23 11:44:00,75.4,46.6,30.06,NE,34,0.0,0.0,36,0.00,,---,0.00,VWS V14.01,2013-08-23 15:44:00,
2013-08-23 11:49:00,74.8,47.6,30.06,North,4,0.0,0.0,38,0.00,,---,0.00,VWS V14.01,2013-08-23 15:49:00,
2013-08-23 11:55:00,73.9,48.1,30.06,North,10,0.0,0.0,40,0.00,,---,0.00,VWS V14.01,2013-08-23 15:55:00,
2013-08-23 12:00:00,73.6,47.8,30.06,North,349,0.0,0.0,40,0.00,,---,0.00,VWS V14.01,2013-08-23 16:00:00,
2013-08-23 12:06:00,74.3,47.8,30.06,North,350,0.0,0.0,39,0.00,,---,0.00,VWS V14.01,2013-08-23 16:06:00,
2013-08-23 12:11:00,73.9,46.0,30.06,North,11,0.0,0.0,37,0.00,,---,0.00,VWS V14.01,2013-08-23 16:11:00,
2013-08-23 12:17:00,73.9,46.0,30.06,North,1,0.0,0.0,37,0.00,,---,0.00,VWS V14.01,2013-08-23 16:17:00,
2013-08-23 12:23:00,74.5,46.5,30.06,NNW,338,0.0,0.0,37,0.00,,---,0.00,VWS V14.01,2013-08-23 16:23:00,
2013-08-23 12:28:00,74.7,46.7,30.09,NW,309,0.0,0.0,37,0.00,,---,0.00,VWS V14.01,2013-08-23 16:28:00,
2013-08-23 12:34:00,74.1,46.2,30.09,ENE,58,0.0,0.0,37,0.00,,---,0.00,VWS V14.01,2013-08-23 16:34:00,
2013-08-23 12:40:00,75.0,47.7,30.09,NNE,26,0.0,0.0,38,0.00,,---,0.00,VWS V14.01,2013-08-23 16:40:00,
2013-08-23 12:46:00,75.4,46.6,30.09,NE,50,0.0,0.0,36,0.00,,---,0.00,VWS V14.01,2013-08-23 16:46:00,
2013-08-23 12:52:00,75.9,47.1,30.09,NNE,17,0.0,0.0,36,0.00,,---,0.00,VWS V14.01,2013-08-23 16:52:00,
2013-08-23 12:58:00,76.3,46.7,30.09,North,353,0.0,0.0,35,0.00,,---,0.00,VWS V14.01,2013-08-23 16:58:00,
2013-08-23 13:04:00,77.0,46.5,30.09,NW,320,0.0,0.0,34,0.00,,---,0.00,VWS V14.01,2013-08-23 17:04:00,
2013-08-23 13:09:00,76.6,47.0,30.09,West,274,0.0,0.0,35,0.00,,---,0.00,VWS V14.01,2013-08-23 17:09:00,
2013-08-23 13:14:00,76.5,46.8,30.09,WNW,291,0.0,0.0,35,0.00,,---,0.00,VWS V14.01,2013-08-23 17:14:00,
2013-08-23 13:20:00,76.5,46.8,30.09,NNE,19,0.0,0.0,35,0.00,,---,0.00,VWS V14.01,2013-08-23 17:20:00,
2013-08-23 13:26:00,76.8,47.1,30.09,NE,56,0.0,0.0,35,0.00,,---,0.00,VWS V14.01,2013-08-23 17:26:00,
2013-08-23 13:31:00,77.0,46.5,30.09,NNW,343,0.0,0.0,34,0.00,,---,0.00,VWS V14.01,2013-08-23 17:31:00,
2013-08-23 13:37:00,76.6,46.2,30.09,NW,319,0.0,0.0,34,0.00,,---,0.00,VWS V14.01,2013-08-23 17:37:00,
2013-08-23 13:43:00,76.1,46.5,30.09,NNE,16,0.0,0.0,35,0.00,,---,0.00,VWS V14.01,2013-08-23 17:43:00,
2013-08-23 13:48:00,76.5,46.8,30.09,NNE,20,0.0,0.0,35,0.00,,---,0.00,VWS V14.01,2013-08-23 17:48:00,
2013-08-23 13:53:00,76.6,46.2,30.09,WNW,287,0.0,0.0,34,0.00,,---,0.00,VWS V14.01,2013-08-23 17:53:00,
2013-08-23 13:58:00,76.8,46.3,30.09,NNW,348,0.0,0.0,34,0.00,,---,0.00,VWS V14.01,2013-08-23 17:58:00,
2013-08-23 14:04:00,76.5,46.0,30.09,NW,326,0.0,0.0,34,0.00,,---,0.00,VWS V14.01,2013-08-23 18:04:00,
2013-08-23 14:09:00,75.9,45.6,30.09,West,268,0.0,0.0,34,0.00,,---,0.00,VWS V14.01,2013-08-23 18:09:00,
2013-08-23 14:15:00,76.3,45.9,30.09,NNW,328,0.0,0.0,34,0.00,,---,0.00,VWS V14.01,2013-08-23 18:15:00,
2013-08-23 14:20:00,75.7,43.0,30.09,West,277,0.0,0.0,31,0.00,,---,0.00,VWS V14.01,2013-08-23 18:20:00,
2013-08-23 14:26:00,74.5,44.3,30.09,NNW,345,0.0,0.0,34,0.00,,---,0.00,VWS V14.01,2013-08-23 18:26:00,
2013-08-23 14:31:00,73.9,44.6,30.09,North,353,0.0,0.0,35,0.00,,---,0.00,VWS V14.01,2013-08-23 18:31:00,
2013-08-23 14:37:00,74.1,44.8,30.09,North,353,0.0,0.0,35,0.00,,---,0.00,VWS V14.01,2013-08-23 18:37:00,
2013-08-23 14:43:00,75.0,44.8,30.09,NNE,13,0.0,0.0,34,0.00,,---,0.00,VWS V14.01,2013-08-23 18:43:00,
2013-08-23 14:48:00,75.0,42.4,30.09,NE,48,0.0,0.0,31,0.00,,---,0.00,VWS V14.01,2013-08-23 18:48:00,
2013-08-23 14:54:00,74.8,43.8,30.09,NNE,18,0.0,0.0,33,0.00,,---,0.00,VWS V14.01,2013-08-23 18:54:00,
2013-08-23 15:00:00,74.8,43.8,30.09,NNW,345,0.0,0.0,33,0.00,,---,0.00,VWS V14.01,2013-08-23 19:00:00,
2013-08-23 15:05:00,74.7,43.7,30.09,NNW,333,0.0,0.0,33,0.00,,---,0.00,VWS V14.01,2013-08-23 19:05:00,
2013-08-23 15:10:00,74.7,44.5,30.09,NE,47,0.0,0.0,34,0.00,,---,0.00,VWS V14.01,2013-08-23 19:10:00,
2013-08-23 15:15:00,74.7,42.9,30.09,NNE,27,0.0,0.0,32,0.00,,---,0.00,VWS V14.01,2013-08-23 19:15:00,
2013-08-23 15:21:00,75.2,44.2,30.09,NNE,19,0.0,0.0,33,0.00,,---,0.00,VWS V14.01,2013-08-23 19:21:00,
2013-08-23 15:26:00,75.7,44.6,30.09,North,9,0.0,0.0,33,0.00,,---,0.00,VWS V14.01,2013-08-23 19:26:00,
2013-08-23 15:32:00,75.7,43.0,30.09,NNW,335,0.0,0.0,31,0.00,,---,0.00,VWS V14.01,2013-08-23 19:32:00,
2013-08-23 15:37:00,75.7,42.1,30.09,North,7,0.0,0.0,30,0.00,,---,0.00,VWS V14.01,2013-08-23 19:37:00,
2013-08-23 15:43:00,75.6,42.0,30.09,NNE,15,0.0,0.0,30,0.00,,---,0.00,VWS V14.01,2013-08-23 19:43:00,
2013-08-23 15:49:00,75.6,42.8,30.09,NNE,16,0.0,0.0,31,0.00,,---,0.00,VWS V14.01,2013-08-23 19:49:00,
2013-08-23 15:54:00,75.6,42.8,30.09,NNW,341,0.0,0.0,31,0.00,,---,0.00,VWS V14.01,2013-08-23 19:54:00,
2013-08-23 15:59:00,75.2,42.5,30.09,North,349,0.0,0.0,31,0.00,,---,0.00,VWS V14.01,2013-08-23 19:59:00,
2013-08-23 16:04:00,74.8,43.0,30.09,NNE,28,0.0,0.0,32,0.00,,---,0.00,VWS V14.01,2013-08-23 20:04:00,
2013-08-23 16:10:00,74.8,43.0,30.09,NNE,15,0.0,0.0,32,0.00,,---,0.00,VWS V14.01,2013-08-23 20:10:00,
2013-08-23 16:15:00,74.7,43.7,30.09,North,353,0.0,0.0,33,0.00,,---,0.00,VWS V14.01,2013-08-23 20:15:00,
2013-08-23 16:21:00,74.8,44.6,30.09,North,7,0.0,0.0,34,0.00,,---,0.00,VWS V14.01,2013-08-23 20:21:00,
2013-08-23 16:26:00,74.8,44.6,30.09,North,353,0.0,0.0,34,0.00,,---,0.00,VWS V14.01,2013-08-23 20:26:00,
2013-08-23 16:32:00,73.9,43.0,30.09,NNW,330,0.0,0.0,33,0.00,,---,0.00,VWS V14.01,2013-08-23 20:32:00,
2013-08-23 16:37:00,73.6,43.5,30.09,NNW,342,0.0,0.0,34,0.00,,---,0.00,VWS V14.01,2013-08-23 20:37:00,
2013-08-23 16:43:00,73.2,44.0,30.12,NNW,328,0.0,0.0,35,0.00,,---,0.00,VWS V14.01,2013-08-23 20:43:00,
2013-08-23 16:49:00,73.0,44.5,30.12,NNE,16,0.0,0.0,36,0.00,,---,0.00,VWS V14.01,2013-08-23 20:49:00,
2013-08-23 16:54:00,72.9,44.4,30.12,North,357,0.0,0.0,36,0.00,,---,0.00,VWS V14.01,2013-08-23 20:54:00,
2013-08-23 17:00:00,72.7,44.9,30.12,NE,34,0.0,0.0,37,0.00,,---,0.00,VWS V14.01,2013-08-23 21:00:00,
2013-08-23 17:06:00,72.5,44.8,30.12,NNW,341,0.0,0.0,37,0.00,,---,0.00,VWS V14.01,2013-08-23 21:06:00,
2013-08-23 17:11:00,72.3,44.6,30.12,North,0,0.0,0.0,37,0.00,,---,0.00,VWS V14.01,2013-08-23 21:11:00,
2013-08-23 17:17:00,72.7,44.9,30.12,North,10,0.0,0.0,37,0.00,,---,0.00,VWS V14.01,2013-08-23 21:17:00,
2013-08-23 17:22:00,72.9,45.1,30.12,North,353,0.0,0.0,37,0.00,,---,0.00,VWS V14.01,2013-08-23 21:22:00,
2013-08-23 17:28:00,72.3,44.6,30.12,NNE,29,0.0,0.0,37,0.00,,---,0.00,VWS V14.01,2013-08-23 21:28:00,
2013-08-23 17:34:00,72.0,45.0,30.12,North,2,0.0,0.0,38,0.00,,---,0.00,VWS V14.01,2013-08-23 21:34:00,
2013-08-23 17:39:00,71.8,44.8,30.12,North,357,0.0,0.0,38,0.00,,---,0.00,VWS V14.01,2013-08-23 21:39:00,
2013-08-23 17:45:00,71.6,45.4,30.12,NE,56,0.0,0.0,39,0.00,,---,0.00,VWS V14.01,2013-08-23 21:45:00,
2013-08-23 17:50:00,71.6,45.4,30.12,NNE,16,0.0,0.0,39,0.00,,---,0.00,VWS V14.01,2013-08-23 21:50:00,
2013-08-23 17:56:00,71.8,46.2,30.12,North,1,0.0,0.0,40,0.00,,---,0.00,VWS V14.01,2013-08-23 21:56:00,
2013-08-23 18:02:00,71.8,46.2,30.12,NNE,13,0.0,0.0,40,0.00,,---,0.00,VWS V14.01,2013-08-23 22:02:00,
2013-08-23 18:07:00,71.6,46.0,30.12,North,1,0.0,0.0,40,0.00,,---,0.00,VWS V14.01,2013-08-23 22:07:00,
2013-08-23 18:12:00,71.2,46.4,30.12,North,0,0.0,0.0,41,0.00,,---,0.00,VWS V14.01,2013-08-23 22:12:00,
2013-08-23 18:17:00,71.1,47.5,30.12,North,5,0.0,0.0,43,0.00,,---,0.00,VWS V14.01,2013-08-23 22:17:00,
2013-08-23 18:23:00,70.9,47.3,30.12,NNE,17,0.0,0.0,43,0.00,,---,0.00,VWS V14.01,2013-08-23 22:23:00,
2013-08-23 18:28:00,70.7,47.7,30.12,North,5,0.0,0.0,44,0.00,,---,0.00,VWS V14.01,2013-08-23 22:28:00,
2013-08-23 18:34:00,70.5,48.2,30.12,North,6,0.0,0.0,45,0.00,,---,0.00,VWS V14.01,2013-08-23 22:34:00,
2013-08-23 18:39:00,70.5,48.2,30.12,NNE,27,0.0,0.0,45,0.00,,---,0.00,VWS V14.01,2013-08-23 22:39:00,
2013-08-23 18:44:00,70.5,48.2,30.12,North,4,0.0,0.0,45,0.00,,---,0.00,VWS V14.01,2013-08-23 22:44:00,
2013-08-23 18:49:00,70.5,48.8,30.12,NNE,16,0.0,0.0,46,0.00,,---,0.00,VWS V14.01,2013-08-23 22:49:00,
2013-08-23 18:55:00,70.5,48.8,30.12,North,357,0.0,0.0,46,0.00,,---,0.00,VWS V14.01,2013-08-23 22:55:00,
2013-08-23 19:00:00,70.2,48.4,30.12,NNE,12,0.0,0.0,46,0.00,,---,0.00,VWS V14.01,2013-08-23 23:00:00,
2013-08-23 19:05:00,70.0,48.3,30.12,North,1,0.0,0.0,46,0.00,,---,0.00,VWS V14.01,2013-08-23 23:05:00,
2013-08-23 19:10:00,69.6,48.5,30.12,North,1,0.0,0.0,47,0.00,,---,0.00,VWS V14.01,2013-08-23 23:10:00,
2013-08-23 19:16:00,69.3,48.2,30.12,NE,35,0.0,0.0,47,0.00,,---,0.00,VWS V14.01,2013-08-23 23:16:00,
2013-08-23 19:21:00,68.9,48.4,30.12,North,11,0.0,0.0,48,0.00,,---,0.00,VWS V14.01,2013-08-23 23:21:00,
2013-08-23 19:27:00,68.5,48.6,30.12,North,11,0.0,0.0,49,0.00,,---,0.00,VWS V14.01,2013-08-23 23:27:00,
2013-08-23 19:33:00,68.4,49.5,30.12,North,11,0.0,0.0,51,0.00,,---,0.00,VWS V14.01,2013-08-23 23:33:00,
2013-08-23 19:38:00,68.2,49.9,30.12,North,11,0.0,0.0,52,0.00,,---,0.00,VWS V14.01,2013-08-23 23:38:00,
2013-08-23 19:43:00,68.0,49.7,30.12,North,11,0.0,0.0,52,0.00,,---,0.00,VWS V14.01,2013-08-23 23:43:00,
2013-08-23 19:49:00,67.8,50.1,30.12,North,11,0.0,0.0,53,0.00,,---,0.00,VWS V14.01,2013-08-23 23:49:00,
2013-08-23 19:54:00,67.6,49.9,30.12,North,11,0.0,0.0,53,0.00,,---,0.00,VWS V14.01,2013-08-23 23:54:00,
2013-08-23 19:59:00,67.5,49.8,30.12,North,11,0.0,0.0,53,0.00,,---,0.00,VWS V14.01,2013-08-23 23:59:00,
2013-08-23 20:05:00,67.3,50.1,30.12,North,11,0.0,0.0,54,0.00,,---,0.00,VWS V14.01,2013-08-24 00:05:00,
2013-08-23 20:11:00,67.3,50.1,30.15,North,11,0.0,0.0,54,0.00,,---,0.00,VWS V14.01,2013-08-24 00:11:00,
2013-08-23 20:16:00,67.1,49.9,30.15,North,11,0.0,0.0,54,0.00,,---,0.00,VWS V14.01,2013-08-24 00:16:00,
2013-08-23 20:21:00,66.9,50.2,30.15,North,11,0.0,0.0,55,0.00,,---,0.00,VWS V14.01,2013-08-24 00:21:00,
2013-08-23 20:26:00,66.7,50.1,30.15,North,11,0.0,0.0,55,0.00,,---,0.00,VWS V14.01,2013-08-24 00:26:00,
2013-08-23 20:32:00,66.4,49.7,30.15,North,11,0.0,0.0,55,0.00,,---,0.00,VWS V14.01,2013-08-24 00:32:00,
2013-08-23 20:37:00,66.2,50.1,30.15,North,11,0.0,0.0,56,0.00,,---,0.00,VWS V14.01,2013-08-24 00:37:00,
2013-08-23 20:42:00,66.2,50.1,30.15,North,11,0.0,0.0,56,0.00,,---,0.00,VWS V14.01,2013-08-24 00:42:00,
2013-08-23 20:47:00,65.8,50.2,30.15,North,11,0.0,0.0,57,0.00,,---,0.00,VWS V14.01,2013-08-24 00:47:00,
2013-08-23 20:53:00,65.7,50.0,30.15,North,11,0.0,0.0,57,0.00,,---,0.00,VWS V14.01,2013-08-24 00:53:00,
2013-08-23 20:58:00,65.5,50.3,30.18,North,11,0.0,0.0,58,0.00,,---,0.00,VWS V14.01,2013-08-24 00:58:00,
2013-08-23 21:03:00,65.3,50.2,30.18,North,11,0.0,0.0,58,0.00,,---,0.00,VWS V14.01,2013-08-24 01:03:00,
2013-08-23 21:08:00,65.1,50.5,30.18,North,11,0.0,0.0,59,0.00,,---,0.00,VWS V14.01,2013-08-24 01:08:00,
2013-08-23 21:13:00,65.1,50.5,30.18,North,11,0.0,0.0,59,0.00,,---,0.00,VWS V14.01,2013-08-24 01:13:00,
2013-08-23 21:19:00,65.1,50.9,30.18,North,11,0.0,0.0,60,0.00,,---,0.00,VWS V14.01,2013-08-24 01:19:00,
2013-08-23 21:25:00,65.1,51.3,30.18,North,11,0.0,0.0,61,0.00,,---,0.00,VWS V14.01,2013-08-24 01:25:00,
2013-08-23 21:30:00,65.1,51.3,30.18,North,11,0.0,0.0,61,0.00,,---,0.00,VWS V14.01,2013-08-24 01:30:00,
2013-08-23 21:36:00,64.9,51.2,30.18,North,11,0.0,0.0,61,0.00,,---,0.00,VWS V14.01,2013-08-24 01:36:00,
2013-08-23 21:41:00,64.9,51.6,30.18,North,11,0.0,0.0,62,0.00,,---,0.00,VWS V14.01,2013-08-24 01:41:00,
2013-08-23 21:46:00,64.9,51.6,30.18,North,11,0.0,0.0,62,0.00,,---,0.00,VWS V14.01,2013-08-24 01:46:00,
2013-08-23 21:51:00,65.1,52.2,30.18,North,11,0.0,0.0,63,0.00,,---,0.00,VWS V14.01,2013-08-24 01:51:00,
2013-08-23 21:56:00,65.1,52.7,30.18,North,11,0.0,0.0,64,0.00,,---,0.00,VWS V14.01,2013-08-24 01:56:00,
2013-08-23 22:02:00,65.1,52.7,30.18,North,11,0.0,0.0,64,0.00,,---,0.00,VWS V14.01,2013-08-24 02:02:00,
2013-08-23 22:07:00,64.9,52.5,30.18,North,11,0.0,0.0,64,0.00,,---,0.00,VWS V14.01,2013-08-24 02:07:00,
2013-08-23 22:12:00,65.1,53.1,30.18,North,11,0.0,0.0,65,0.00,,---,0.00,VWS V14.01,2013-08-24 02:12:00,
2013-08-23 22:18:00,65.1,53.1,30.18,North,11,0.0,0.0,65,0.00,,---,0.00,VWS V14.01,2013-08-24 02:18:00,
2013-08-23 22:23:00,65.1,53.5,30.18,North,11,0.0,0.0,66,0.00,,---,0.00,VWS V14.01,2013-08-24 02:23:00,
2013-08-23 22:29:00,65.7,54.4,30.18,WNW,298,4.1,4.1,67,0.00,,---,0.00,VWS V14.01,2013-08-24 02:29:00,
2013-08-23 22:35:00,65.5,54.2,30.18,WNW,298,0.0,0.0,67,0.00,,---,0.00,VWS V14.01,2013-08-24 02:35:00,
2013-08-23 22:41:00,65.5,54.7,30.18,NW,312,3.1,4.1,68,0.00,,---,0.00,VWS V14.01,2013-08-24 02:41:00,
2013-08-23 22:47:00,65.8,55.4,30.18,NNW,327,0.0,3.6,69,0.00,,---,0.00,VWS V14.01,2013-08-24 02:47:00,
2013-08-23 22:52:00,65.8,55.8,30.18,West,277,3.1,4.6,70,0.00,,---,0.00,VWS V14.01,2013-08-24 02:52:00,
2013-08-23 22:57:00,65.8,55.8,30.15,North,9,0.0,4.6,70,0.00,,---,0.00,VWS V14.01,2013-08-24 02:57:00,
2013-08-23 23:02:00,66.0,56.4,30.15,WNW,291,3.1,3.1,71,0.00,,---,0.00,VWS V14.01,2013-08-24 03:02:00,
2013-08-23 23:07:00,66.0,56.4,30.15,NNW,331,2.6,2.6,71,0.00,,---,0.00,VWS V14.01,2013-08-24 03:07:00,
2013-08-23 23:12:00,66.0,56.4,30.18,NNW,331,2.6,2.6,71,0.00,,---,0.00,VWS V14.01,2013-08-24 03:12:00,
2013-08-23 23:18:00,66.0,56.7,30.18,NNW,331,2.6,2.6,72,0.00,,---,0.00,VWS V14.01,2013-08-24 03:18:00,
2013-08-23 23:23:00,66.2,56.9,30.18,NNW,331,2.6,2.6,72,0.00,,---,0.00,VWS V14.01,2013-08-24 03:23:00,
2013-08-23 23:28:00,66.4,57.1,30.18,NNW,331,2.6,2.6,72,0.00,,---,0.00,VWS V14.01,2013-08-24 03:28:00,
2013-08-23 23:33:00,66.6,57.3,30.18,NNW,331,2.6,2.6,72,0.00,,---,0.00,VWS V14.01,2013-08-24 03:33:00,
2013-08-23 23:39:00,66.6,57.3,30.18,NNW,331,2.6,2.6,72,0.00,,---,0.00,VWS V14.01,2013-08-24 03:39:00,
2013-08-23 23:45:00,66.6,57.3,30.18,NNW,331,2.6,2.6,72,0.00,,---,0.00,VWS V14.01,2013-08-24 03:45:00,
2013-08-23 23:51:00,66.6,57.3,30.18,WNW,294,0.0,0.0,72,0.00,,---,0.00,VWS V14.01,2013-08-24 03:51:00,
2013-08-23 23:57:00,66.6,57.3,30.18,NW,313,0.0,0.0,72,0.00,,---,0.00,VWS V14.01,2013-08-24 03:57:00,